K8WEH Weather Reports


time (UTC)temp
C
wind
direction
speed
KPH
gust
KPH
rain 1hr
cm
rain 24hr
cm
rain mn
cm
humidity
%
barometer
mb
20260507125055 6 140 0.0 3.2 0.00 0.00 0.00 52 1017.4
20260507124557 6 140 0.0 1.6 0.00 0.00 0.00 51 1017.4
20260507124056 6 165 0.0 1.6 0.00 0.00 0.00 51 1017.4
20260507123555 6 165 0.0 1.6 0.00 0.00 0.00 51 1017.4
20260507123105 5 165 0.0 1.6 0.00 0.00 0.00 52 1017.4
20260507122555 5 165 0.0 1.6 0.00 0.00 0.00 52 1017.5
20260507122054 5 166 0.0 1.6 0.00 0.00 0.00 53 1017.6
20260507121556 5 157 0.0 0.0 0.00 0.00 0.00 54 1017.6
20260507121055 4 157 0.0 0.0 0.00 0.00 0.00 55 1017.5
20260507120553 4 157 0.0 1.6 0.00 0.00 0.00 55 1017.5
20260507120052 4 157 0.0 1.6 0.00 0.00 0.00 55 1017.5
20260507115552 3 157 0.0 0.0 0.00 0.00 0.00 56 1017.4
20260507115052 3 157 0.0 1.6 0.00 0.00 0.00 57 1017.5
20260507114551 3 157 0.0 1.6 0.00 0.00 0.00 57 1017.4
20260507114053 3 157 0.0 0.0 0.00 0.00 0.00 58 1017.3
20260507113550 3 130 0.0 0.0 0.00 0.00 0.00 58 1017.4
20260507113049 3 130 0.0 0.0 0.00 0.00 0.00 59 1017.4
20260507112549 3 130 0.0 0.0 0.00 0.00 0.00 59 1017.3
20260507112049 3 130 0.0 0.0 0.00 0.00 0.00 59 1017.3
20260507111548 3 130 0.0 1.6 0.00 0.00 0.00 59 1017.0
20260507111049 3 130 0.0 1.6 0.00 0.00 0.00 59 1017.0
20260507110547 3 130 0.0 0.0 0.00 0.00 0.00 60 1017.0
20260507110100 3 174 0.0 0.0 0.00 0.00 0.00 60 1016.9
20260507105545 3 174 0.0 0.0 0.00 0.05 0.00 60 1016.8
20260507105147 3 174 0.0 0.0 0.00 0.05 0.00 61 1016.9
20260507104546 3 174 0.0 0.0 0.00 0.05 0.00 61 1016.9
20260507104046 3 174 0.0 0.0 0.00 0.05 0.00 61 1016.8
20260507103544 3 260 0.0 0.0 0.00 0.05 0.00 61 1016.9
20260507103048 3 260 0.0 0.0 0.00 0.05 0.00 61 1016.8
20260507102543 3 260 0.0 0.0 0.00 0.05 0.00 61 1016.9
20260507102043 3 260 0.0 0.0 0.00 0.05 0.00 60 1016.9
20260507101547 3 260 0.0 0.0 0.00 0.05 0.00 60 1016.8
20260507101041 3 260 0.0 0.0 0.00 0.05 0.00 60 1016.8
20260507100542 3 260 0.0 0.0 0.00 0.05 0.00 60 1016.7
20260507100041 3 260 0.0 0.0 0.00 0.05 0.00 61 1016.6
20260507095541 3 260 0.0 0.0 0.00 0.20 0.00 61 1016.6
20260507095040 4 260 0.0 0.0 0.00 0.20 0.00 61 1016.5
20260507094540 4 260 0.0 0.0 0.00 0.20 0.00 61 1016.4
20260507094041 4 260 0.0 0.0 0.00 0.20 0.00 61 1016.4
20260507093539 4 260 0.0 0.0 0.00 0.20 0.00 61 1016.6
20260507093039 4 260 0.0 0.0 0.00 0.20 0.00 61 1016.5
20260507092539 4 260 0.0 0.0 0.00 0.20 0.00 61 1016.5
20260507092042 4 260 0.0 0.0 0.00 0.20 0.00 61 1016.4
20260507091540 4 260 0.0 0.0 0.00 0.20 0.00 62 1016.4
20260507091038 4 260 0.0 0.0 0.00 0.20 0.00 62 1016.4
20260507090536 4 260 0.0 0.0 0.00 0.20 0.00 62 1016.4
20260507090041 4 260 0.0 0.0 0.00 0.20 0.00 62 1016.4
20260507085535 5 260 0.0 0.0 0.00 0.41 0.00 62 1016.4
20260507085035 5 260 0.0 0.0 0.00 0.41 0.00 62 1016.4
20260507084539 5 260 0.0 0.0 0.00 0.41 0.00 62 1016.4
20260507084033 5 260 0.0 0.0 0.00 0.41 0.00 61 1016.4
20260507083533 5 260 0.0 0.0 0.00 0.41 0.00 62 1016.3
20260507083037 5 260 0.0 0.0 0.00 0.41 0.00 61 1016.2
20260507082531 5 260 0.0 0.0 0.00 0.41 0.00 61 1016.1
20260507082031 5 260 0.0 0.0 0.00 0.41 0.00 62 1016.1
20260507081530 5 260 0.0 0.0 0.00 0.41 0.00 62 1016.2
20260507081030 5 260 0.0 0.0 0.00 0.41 0.00 62 1016.3
20260507080530 5 260 0.0 0.0 0.00 0.41 0.00 62 1016.3
20260507080030 5 260 0.0 0.0 0.00 0.41 0.00 62 1016.3
20260507075529 5 260 0.0 0.0 0.00 0.71 0.00 62 1016.3
20260507075028 5 260 0.0 0.0 0.00 0.71 0.00 62 1016.4
20260507074539 5 260 0.0 0.0 0.00 0.71 0.00 62 1016.1
20260507074027 5 260 0.0 0.0 0.00 0.71 0.00 63 1016.3
20260507073527 5 260 0.0 0.0 0.00 0.71 0.00 62 1016.4
20260507073027 6 260 0.0 0.0 0.00 0.71 0.00 62 1016.3
20260507072526 6 260 0.0 0.0 0.00 0.71 0.00 63 1016.2
20260507072026 6 260 0.0 0.0 0.00 0.71 0.00 63 1016.2
20260507071525 6 260 0.0 0.0 0.00 0.71 0.00 63 1016.1
20260507071024 6 260 0.0 0.0 0.00 0.71 0.00 64 1016.2
20260507070524 6 260 0.0 0.0 0.00 0.71 0.00 64 1016.4
20260507070023 6 260 0.0 0.0 0.00 0.71 0.00 64 1016.4
20260507065522 6 260 0.0 0.0 0.00 1.27 0.00 64 1016.3
20260507065021 6 260 0.0 0.0 0.00 1.27 0.00 64 1016.3
20260507064521 6 260 0.0 0.0 0.00 1.27 0.00 64 1016.3
20260507064020 6 260 0.0 0.0 0.00 1.27 0.00 65 1016.3
20260507063520 6 260 0.0 0.0 0.00 1.27 0.00 65 1016.4
20260507063019 6 260 0.0 0.0 0.00 1.27 0.00 65 1016.3
20260507062518 6 260 0.0 0.0 0.00 1.27 0.00 66 1016.3
20260507062017 7 260 0.0 0.0 0.00 1.27 0.00 65 1016.4
20260507061517 7 260 0.0 0.0 0.00 1.27 0.00 65 1016.3
20260507061016 7 260 0.0 0.0 0.00 1.27 0.00 66 1016.3
20260507060516 7 260 0.0 0.0 0.00 1.27 0.00 67 1016.2
20260507060015 7 260 0.0 0.0 0.00 1.27 0.00 67 1016.4
20260507055515 7 260 0.0 0.0 0.00 1.52 0.00 67 1016.3
20260507055014 7 260 0.0 0.0 0.00 1.52 0.00 68 1016.3
20260507054513 7 260 0.0 0.0 0.00 1.52 0.00 69 1016.4
20260507054014 7 260 0.0 0.0 0.00 1.52 0.00 69 1016.4
20260507053512 7 260 0.0 0.0 0.00 1.52 0.00 69 1016.4
20260507053111 7 260 0.0 0.0 0.00 1.52 0.00 69 1016.5
20260507052512 7 260 0.0 0.0 0.00 1.52 0.00 69 1016.5
20260507052009 7 260 0.0 0.0 0.00 1.52 0.00 69 1016.4
20260507051508 8 260 0.0 0.0 0.00 1.52 0.00 70 1016.3
20260507051007 8 260 0.0 0.0 0.00 1.52 0.00 71 1016.5
20260507050507 8 260 0.0 0.0 0.00 1.52 0.00 72 1016.6
20260507050006 8 260 0.0 0.0 0.00 1.55 0.00 72 1016.7
20260507045505 8 260 0.0 0.0 0.00 1.55 0.00 72 1016.7
20260507045004 8 260 0.0 0.0 0.00 1.55 0.00 72 1016.6
20260507044504 8 260 0.0 0.0 0.00 1.55 0.00 73 1016.7
20260507044002 8 260 0.0 0.0 0.00 1.55 0.00 73 1016.7
20260507043503 8 260 0.0 0.0 0.00 1.55 0.00 74 1016.7
20260507043001 8 260 0.0 0.0 0.00 1.55 0.00 74 1016.8
20260507042600 8 260 0.0 0.0 0.00 1.55 0.00 74 1016.7
20260507042059 8 260 0.0 0.0 0.00 1.55 0.00 74 1016.7
20260507041601 8 260 0.0 0.0 0.00 1.55 0.00 75 1016.7
20260507041058 8 260 0.0 0.0 0.00 1.55 0.00 75 1016.7
20260507040557 9 260 0.0 0.0 0.00 1.55 0.00 75 1016.8
20260507040057 9 260 0.0 0.0 0.00 1.55 0.00 75 1016.6
20260507035556 9 260 0.0 0.0 0.00 1.55 1.55 76 1016.4
20260507035056 10 260 0.0 0.0 0.00 1.55 1.55 75 1016.4
20260507034600 10 260 0.0 0.0 0.00 1.55 1.55 75 1016.4
20260507034056 10 260 0.0 0.0 0.00 1.55 1.55 75 1016.4
20260507033556 10 260 0.0 0.0 0.00 1.55 1.55 73 1016.5
20260507033055 10 260 0.0 0.0 0.00 1.55 1.55 72 1016.6
20260507032555 10 260 0.0 0.0 0.00 1.55 1.55 72 1016.5
20260507032053 10 260 0.0 0.0 0.00 1.55 1.55 72 1016.4
20260507031554 10 260 0.0 0.0 0.00 1.55 1.55 72 1016.3
20260507031054 10 260 0.0 0.0 0.00 1.55 1.55 72 1016.2
20260507030554 11 260 0.0 0.0 0.00 1.55 1.55 73 1016.2
20260507030054 11 260 0.0 0.0 0.00 1.55 1.55 73 1016.3
20260507025553 11 260 0.0 0.0 0.00 1.60 1.55 73 1016.4
20260507025054 11 260 0.0 0.0 0.00 1.60 1.55 74 1016.4
20260507024558 11 260 0.0 0.0 0.00 1.60 1.55 75 1016.4
20260507024053 11 260 0.0 0.0 0.00 1.60 1.55 75 1016.4
20260507023555 11 260 0.0 0.0 0.00 1.60 1.55 76 1016.4
20260507023054 11 260 0.0 0.0 0.00 1.60 1.55 75 1016.3
20260507022552 11 260 0.0 0.0 0.00 1.60 1.55 76 1016.3
20260507022051 11 260 0.0 0.0 0.00 1.60 1.55 76 1016.1
20260507021554 11 260 0.0 0.0 0.00 1.60 1.55 76 1016.1
20260507021052 11 260 0.0 0.0 0.00 1.60 1.55 76 1016.1
20260507020552 11 260 0.0 0.0 0.00 1.60 1.55 76 1016.2
20260507020054 11 260 0.0 0.0 0.00 1.60 1.55 75 1016.5
20260507015550 11 260 0.0 0.0 0.00 1.65 1.55 75 1016.1
20260507015050 11 260 0.0 0.0 0.00 1.65 1.55 73 1016.2
20260507014551 11 260 0.0 0.0 0.00 1.65 1.55 74 1016.0
20260507014049 11 260 0.0 0.0 0.00 1.65 1.55 74 1016.0
20260507013549 11 260 0.0 0.0 0.00 1.65 1.55 74 1016.0
20260507013048 11 260 0.0 0.0 0.00 1.65 1.55 75 1015.7
20260507012549 11 260 0.0 0.0 0.00 1.65 1.55 75 1015.6
20260507012046 11 260 0.0 0.0 0.00 1.65 1.55 74 1015.6
20260507011548 11 260 0.0 0.0 0.00 1.65 1.55 74 1015.5
20260507011046 11 260 0.0 0.0 0.00 1.65 1.55 73 1015.6
20260507010546 11 260 0.0 0.0 0.00 1.65 1.55 73 1015.4
20260507010104 11 260 0.0 0.0 0.00 1.65 1.55 74 1015.5
20260507005546 11 260 0.0 0.0 0.00 1.70 1.55 73 1015.4
20260507005046 11 260 0.0 0.0 0.00 1.70 1.55 74 1015.0
20260507004545 11 260 0.0 0.0 0.00 1.70 1.55 75 1015.2
20260507004044 11 260 0.0 0.0 0.00 1.70 1.55 75 1015.0
20260507003544 11 260 0.0 0.0 0.00 1.70 1.55 75 1015.1
20260507003044 11 260 0.0 0.0 0.00 1.70 1.55 76 1015.0
20260507002543 11 260 0.0 0.0 0.00 1.70 1.55 76 1014.9
20260507002042 12 260 0.0 0.0 0.00 1.70 1.55 76 1014.6
20260507001549 12 260 0.0 0.0 0.00 1.70 1.55 75 1014.6
20260507001044 12 260 0.0 0.0 0.00 1.70 1.55 75 1014.6
20260507000542 12 260 0.0 0.0 0.00 1.70 1.55 75 1014.6
20260507000041 12 260 0.0 0.0 0.00 1.70 1.55 76 1014.4
20260506235541 12 260 0.0 0.0 0.00 1.70 1.55 76 1014.5
20260506235041 12 260 0.0 0.0 0.00 1.70 1.55 76 1014.6
20260506234541 12 260 0.0 0.0 0.00 1.70 1.55 76 1014.4
20260506234040 12 260 0.0 0.0 0.00 1.70 1.55 74 1014.1
20260506233540 12 260 0.0 0.0 0.00 1.70 1.55 73 1013.9
20260506233043 12 260 0.0 0.0 0.00 1.70 1.55 73 1013.8
20260506232539 13 260 0.0 0.0 0.00 1.70 1.55 74 1013.6
20260506232039 13 260 0.0 0.0 0.00 1.70 1.55 74 1013.9
20260506231539 13 260 0.0 0.0 0.00 1.70 1.55 74 1013.9
20260506231040 13 260 0.0 0.0 0.00 1.70 1.55 72 1013.9
20260506230540 13 260 0.0 0.0 0.00 1.70 1.55 71 1013.8
20260506230044 13 260 0.0 0.0 0.00 1.70 1.55 71 1013.7
20260506225539 13 260 0.0 0.0 0.00 1.75 1.55 70 1013.8
20260506225040 13 260 0.0 0.0 0.00 1.75 1.55 69 1013.8
20260506224539 13 260 0.0 0.0 0.00 1.75 1.55 70 1013.7
20260506224038 13 260 0.0 0.0 0.00 1.75 1.55 72 1013.6
20260506223538 13 260 0.0 0.0 0.00 1.75 1.55 71 1014.0
20260506223043 13 260 0.0 0.0 0.00 1.75 1.55 68 1014.4
20260506222538 13 260 0.0 0.0 0.00 1.75 1.55 69 1014.1
20260506222039 13 260 0.0 0.0 0.00 1.75 1.55 69 1014.0
20260506221544 13 260 0.0 0.0 0.00 1.75 1.55 70 1014.1
20260506221037 13 260 0.0 0.0 0.00 1.75 1.55 71 1014.3
20260506220537 13 260 0.0 0.0 0.00 1.75 1.55 69 1014.4
20260506220045 13 260 0.0 3.2 0.00 1.75 1.55 68 1014.2
20260506215536 13 260 0.0 3.2 0.00 1.75 1.55 70 1013.9
20260506215035 13 260 0.0 3.2 0.00 1.75 1.55 70 1014.0
20260506214535 13 260 0.0 3.2 0.00 1.75 1.55 69 1014.0
20260506214034 13 260 0.0 3.2 0.00 1.75 1.55 69 1013.9
20260506213534 13 260 0.0 3.2 0.00 1.75 1.55 70 1013.6
20260506213035 14 260 0.0 1.6 0.00 1.75 1.55 70 1013.6
20260506212534 14 260 0.0 3.2 0.00 1.75 1.55 69 1013.8
20260506212034 14 260 1.6 3.2 0.00 1.75 1.55 70 1013.5
20260506211539 14 260 0.0 3.2 0.00 1.75 1.55 68 1013.6
20260506211034 14 260 0.0 0.0 0.00 1.75 1.55 72 1013.3
20260506210534 14 260 0.0 1.6 0.00 1.75 1.55 73 1013.3
20260506210035 14 260 0.0 3.2 0.00 1.75 1.55 69 1013.3
20260506205533 14 260 1.6 3.2 0.00 1.75 1.55 68 1013.3
20260506205034 14 260 1.6 3.2 0.00 1.75 1.55 66 1013.6
20260506204533 14 328 0.0 3.2 0.00 1.75 1.55 67 1013.4
20260506204033 14 329 1.6 4.8 0.00 1.75 1.55 65 1013.4
20260506203535 14 328 1.6 4.8 0.00 1.75 1.55 66 1013.5
20260506203033 15 328 0.0 3.2 0.00 1.75 1.55 71 1013.7
20260506202533 15 328 1.6 3.2 0.00 1.75 1.55 68 1013.5
20260506202032 15 328 0.0 6.4 0.00 1.75 1.55 67 1013.4
20260506201532 15 328 1.6 8.0 0.00 1.75 1.55 64 1013.5
20260506201031 15 359 3.2 8.0 0.00 1.75 1.55 69 1013.6
20260506200531 15 204 1.6 4.8 0.00 1.75 1.55 66 1013.7
20260506200032 15 204 1.6 4.8 0.00 1.75 1.55 64 1013.7
20260506195531 15 195 1.6 6.4 0.00 1.75 1.55 64 1013.7
20260506195032 15 178 1.6 6.4 0.00 1.75 1.55 65 1013.8
20260506194535 15 176 1.6 4.8 0.00 1.75 1.55 69 1013.6
20260506194030 15 335 1.6 4.8 0.00 1.75 1.55 67 1013.7
20260506193529 15 11 1.6 3.2 0.00 1.75 1.55 67 1013.4
20260506193032 15 12 0.0 4.8 0.00 1.75 1.55 70 1013.6
20260506192529 15 11 1.6 4.8 0.00 1.75 1.55 71 1013.3
20260506192029 15 11 1.6 6.4 0.00 1.75 1.55 67 1013.3
20260506191529 15 359 1.6 4.8 0.00 1.75 1.55 69 1013.4
20260506191028 15 280 3.2 6.4 0.00 1.75 1.55 71 1013.3
20260506190528 15 273 1.6 6.4 0.00 1.75 1.55 71 1013.3
20260506190025 15 287 3.2 4.8 0.00 1.75 1.55 70 1013.0
20260506185525 15 304 3.2 4.8 0.00 1.75 1.55 72 1012.9
20260506185023 14 251 1.6 4.8 0.00 1.75 1.55 73 1013.0
20260506184525 14 251 0.0 4.8 0.00 1.75 1.55 74 1013.2
20260506184021 13 244 1.6 8.0 0.00 1.75 1.55 74 1013.2
20260506183520 13 337 1.6 8.0 0.00 1.75 1.55 74 1013.3
20260506183019 13 313 1.6 6.4 0.00 1.75 1.55 74 1013.4
20260506182517 13 336 1.6 6.4 0.00 1.75 1.55 76 1013.4
20260506182017 13 335 1.6 9.7 0.00 1.75 1.55 76 1013.4
20260506181516 13 359 3.2 9.7 0.00 1.75 1.55 76 1013.4
20260506181016 13 313 1.6 4.8 0.00 1.75 1.55 76 1013.4
20260506180516 12 313 1.6 3.2 0.00 1.75 1.55 76 1013.4
20260506180016 12 313 0.0 4.8 0.00 1.75 1.55 76 1013.4
20260506175515 12 313 1.6 8.0 0.00 1.75 1.55 76 1013.5
20260506175015 12 7 4.8 8.0 0.00 1.75 1.55 75 1013.5
20260506174514 12 341 0.0 6.4 0.00 1.75 1.55 75 1013.4
20260506174014 12 13 3.2 6.4 0.00 1.75 1.55 75 1013.6
20260506173514 12 354 1.6 4.8 0.00 1.75 1.55 74 1013.7
20260506173014 12 354 0.0 4.8 0.00 1.75 1.55 73 1013.9
20260506172511 12 354 0.0 4.8 0.00 1.75 1.55 70 1014.0
20260506172013 12 354 1.6 6.4 0.00 1.75 1.55 71 1014.1
20260506171511 11 354 3.2 6.4 0.00 1.75 1.55 67 1013.9
20260506171012 11 4 1.6 4.8 0.00 1.75 1.55 69 1013.8
20260506170510 11 242 1.6 4.8 0.00 1.75 1.55 66 1013.7
20260506170011 11 242 0.0 1.6 0.00 1.75 1.55 59 1013.7
20260506165510 11 242 0.0 4.8 0.00 1.75 1.55 65 1013.8
20260506165010 11 242 1.6 4.8 0.00 1.75 1.55 66 1014.0
20260506164508 11 209 1.6 4.8 0.00 1.75 1.55 64 1013.9
20260506164007 11 227 1.6 4.8 0.00 1.75 1.55 61 1014.0
20260506163506 11 227 1.6 4.8 0.00 1.75 1.55 56 1013.9
20260506163008 11 226 0.0 4.8 0.00 1.75 1.55 53 1014.0
20260506162505 11 226 1.6 4.8 0.00 1.75 1.55 52 1014.0
20260506162004 11 253 0.0 3.2 0.00 1.75 1.55 53 1013.9
20260506161506 11 336 1.6 3.2 0.00 1.75 1.55 51 1013.8
20260506161002 10 336 0.0 4.8 0.00 1.75 1.55 51 1013.9
20260506160502 10 336 1.6 4.8 0.00 1.75 1.55 50 1013.7
20260506160002 10 336 1.6 4.8 0.00 1.75 1.55 48 1013.8
20260506155501 10 336 0.0 4.8 0.00 1.75 1.55 47 1013.6
20260506155001 10 336 1.6 4.8 0.00 1.75 1.55 45 1013.4
20260506154603 10 336 1.6 4.8 0.00 1.75 1.55 45 1013.3
20260506154100 10 336 1.6 3.2 0.00 1.75 1.55 44 1013.5
20260506153559 10 336 0.0 3.2 0.00 1.75 1.55 44 1013.5
20260506153059 10 336 0.0 4.8 0.00 1.75 1.55 45 1013.6
20260506152558 10 336 0.0 4.8 0.00 1.75 1.55 45 1013.4
20260506152058 10 336 1.6 4.8 0.00 1.75 1.55 45 1013.5
20260506151558 9 336 0.0 0.0 0.00 1.75 1.55 45 1013.5
20260506151057 9 336 0.0 0.0 0.00 1.75 1.55 45 1013.5
20260506150557 9 336 0.0 0.0 0.00 1.75 1.55 45 1013.3
20260506145555 8 336 0.0 0.0 0.00 1.75 1.55 46 1013.2
20260506145056 8 336 0.0 3.2 0.00 1.75 1.55 46 1013.2
20260506144609 8 336 0.0 1.6 0.00 1.75 1.55 47 1012.9
20260506144054 8 336 0.0 1.6 0.00 1.75 1.55 46 1012.7
20260506143554 8 336 0.0 1.6 0.00 1.75 1.55 47 1012.7
20260506143055 8 336 0.0 0.0 0.00 1.75 1.55 47 1012.8
20260506142555 8 336 0.0 1.6 0.00 1.75 1.55 47 1012.8
20260506142054 8 336 0.0 3.2 0.00 1.75 1.55 47 1012.8
20260506141552 8 336 0.0 3.2 0.00 1.75 1.55 47 1012.7
20260506141053 8 336 0.0 4.8 0.00 1.75 1.55 47 1012.7
20260506140551 8 336 0.0 4.8 0.00 1.75 1.55 47 1012.7
20260506140105 8 336 0.0 3.2 0.00 1.75 1.55 47 1012.4
20260506135551 8 336 0.0 3.2 0.00 1.75 1.55 47 1012.5
20260506135051 8 336 0.0 4.8 0.00 1.75 1.55 47 1012.5
20260506134550 8 336 0.0 4.8 0.00 1.75 1.55 47 1012.6
20260506134050 8 336 0.0 1.6 0.00 1.75 1.55 47 1012.6
20260506133550 8 336 0.0 4.8 0.00 1.75 1.55 48 1012.6
20260506133104 8 336 1.6 4.8 0.00 1.75 1.55 47 1012.5
20260506132550 8 330 0.0 4.8 0.00 1.75 1.55 48 1012.4
20260506132048 8 312 1.6 4.8 0.00 1.75 1.55 48 1012.3
20260506131548 8 312 0.0 4.8 0.00 1.75 1.55 48 1012.3
20260506131049 8 312 0.0 4.8 0.00 1.75 1.55 48 1012.3
20260506130546 8 308 1.6 4.8 0.00 1.75 1.55 48 1012.0
20260506130117 8 295 1.6 4.8 0.00 1.75 1.55 48 1011.8
20260506125545 8 296 0.0 4.8 0.00 1.75 1.55 48 1011.9